Roswell, NM

2:25 PM MDT on May 24, 2018 (GMT -0600)
Roswell Industrial

Weather History for KROW - March, 2014

Change the Weather History Date:

Sunday, March 2, 2014

  Actual Average Record
Temperature  
Mean Temperature 41 °F 49 °F  
Max Temperature 56 °F 64 °F 90 °F (1967)
Min Temperature 25 °F 34 °F 4 °F (1922)
Degree Days  
Heating Degree Days 24 16  
Month to date heating degree days 30 32  
Since 1 July heating degree days 2733 2739  
Cooling Degree Days 0 0  
Month to date cooling degree days 0 0  
Year to date cooling degree days 0 0  
Moisture  
Dew Point 32 °F    
Average Humidity 71    
Maximum Humidity 92    
Minimum Humidity 50    
Precipitation  
Precipitation 0.05 in 0.02 in 0.39 in (2001)
Month to date precipitation 0.05 0.03  
Year to date precipitation 0.07 0.83  
Sea Level Pressure  
Sea Level Pressure 30.02 in    
Wind  
Wind Speed 13 mph (NE)    
Max Wind Speed 24 mph    
Max Gust Speed 30 mph    
Visibility 9 miles    
Events Rain    
T = Trace of Precipitation, MM = Missing Value Source: NWS Daily Summary

Daily Weather History Graph

Daily Weather History Graph

Search for Another Location

Airport or City:

Astronomy

Mar. 02, 2014 Rise Set
Actual Time 6:25 AM MST 5:55 PM MST
Civil Twilight 6:00 AM MST 6:20 PM MST
Nautical Twilight 5:31 AM MST 6:49 PM MST
Astronomical Twilight 5:02 AM MST 7:18 PM MST
Moon 7:04 AM MST (3/2) 7:46 PM MST (3/2)
Length of Visible Light 12h 20m
Length of Day
11h 30m
Waxing Crescent, 3% of the Moon is Illuminated
Mar 2
Waxing Crescent
Mar 8
First Quarter
Mar 16
Full
Mar 23
Last Quarter
Mar 30
New

Hourly Weather History & Observations

Time (MST) Temp. Windchill Dew Point Humidity Pressure Visibility Wind Dir Wind Speed Gust Speed Precip Events Conditions
12:51 AM 55.9 °F - 39.9 °F 55% 29.77 in 10.0 mi East 5.8 mph - N/A   Clear
1:51 AM 53.1 °F - 36.0 °F 52% 29.78 in 10.0 mi East 8.1 mph - N/A   Partly Cloudy
2:51 AM 50.0 °F - 35.1 °F 57% 29.78 in 10.0 mi ESE 3.5 mph - N/A   Mostly Cloudy
3:51 AM 48.0 °F - 35.1 °F 61% 29.82 in 10.0 mi North 5.8 mph - N/A   Clear
4:51 AM 46.0 °F 41.4 °F 32.0 °F 58% 29.83 in 10.0 mi NNE 9.2 mph - N/A   Overcast
5:51 AM 44.1 °F 37.7 °F 32.0 °F 63% 29.92 in 10.0 mi North 12.7 mph - 0.00 in Rain Light Rain
6:51 AM 39.0 °F 31.8 °F 35.1 °F 86% 29.91 in 6.0 mi East 11.5 mph - 0.05 in Rain Light Rain
7:51 AM 37.0 °F 28.1 °F 33.1 °F 86% 29.94 in 6.0 mi ESE 15.0 mph - 0.00 in   Overcast
8:51 AM 37.0 °F 30.4 °F 34.0 °F 89% 29.96 in 6.0 mi SSE 9.2 mph - N/A   Partly Cloudy
9:17 AM 39.0 °F 31.4 °F 35.1 °F 86% 30.02 in 5.0 mi SSE 12.7 mph - N/A   Partly Cloudy
9:51 AM 39.9 °F 33.4 °F 37.0 °F 89% 29.95 in 5.0 mi SSE 10.4 mph - N/A   Scattered Clouds
10:00 AM 41.0 °F 33.5 °F 37.0 °F 86% 30.03 in 5.0 mi South 13.8 mph - N/A   Mostly Cloudy
10:51 AM 42.1 °F 34.2 °F 37.0 °F 82% 29.95 in 7.0 mi SSE 16.1 mph - N/A   Overcast
11:23 AM 42.1 °F 34.5 °F 37.0 °F 82% 30.01 in 8.0 mi SSE 15.0 mph - N/A   Overcast
11:51 AM 44.1 °F 37.4 °F 37.0 °F 76% 29.93 in 9.0 mi SSE 13.8 mph - N/A   Overcast
12:20 PM 48.0 °F - 37.9 °F 68% 29.99 in 10.0 mi SE 5.8 mph - N/A   Mostly Cloudy
12:51 PM 48.0 °F - 37.9 °F 68% 29.91 in 9.0 mi ESE 6.9 mph - N/A   Mostly Cloudy
1:21 PM 50.0 °F - 39.0 °F 66% 29.99 in 10.0 mi Variable 5.8 mph - N/A   Scattered Clouds
1:36 PM 50.0 °F - 39.0 °F 66% 30.01 in 10.0 mi NNE 11.5 mph 17.3 mph N/A   Mostly Cloudy
1:51 PM 48.0 °F - 39.0 °F 71% 29.94 in 8.0 mi North 21.9 mph - N/A   Overcast
2:29 PM 45.0 °F 38.2 °F 37.0 °F 74% 30.02 in 9.0 mi NE 15.0 mph - 0.00 in Rain Light Rain
2:51 PM 45.0 °F 38.5 °F 37.0 °F 74% 29.96 in 9.0 mi North 13.8 mph - 0.00 in   Overcast
3:41 PM 46.0 °F 39.3 °F 37.9 °F 73% 30.03 in 8.0 mi North 16.1 mph - N/A   Mostly Cloudy
3:51 PM 46.0 °F 38.8 °F 37.0 °F 71% 29.96 in 9.0 mi North 18.4 mph - N/A   Mostly Cloudy
4:51 PM 37.9 °F 27.1 °F 30.9 °F 76% 30.03 in 10.0 mi North 23.0 mph - N/A   Overcast
5:51 PM 32.0 °F 19.5 °F 26.1 °F 79% 30.11 in 10.0 mi North 21.9 mph - N/A   Overcast
6:51 PM 28.0 °F 14.3 °F 23.0 °F 81% 30.19 in 10.0 mi NNE 21.9 mph - N/A   Overcast
6:59 PM 28.0 °F 15.3 °F 23.0 °F 81% 30.18 in 9.0 mi North 18.4 mph - N/A   Overcast
7:51 PM 27.0 °F 15.6 °F 21.9 °F 81% 30.25 in 10.0 mi NNE 13.8 mph - N/A   Overcast
8:51 PM 26.1 °F 15.0 °F 21.9 °F 84% 30.27 in 10.0 mi North 12.7 mph - N/A   Overcast
9:51 PM 25.0 °F 14.2 °F 21.0 °F 85% 30.28 in 9.0 mi NNE 11.5 mph - N/A   Overcast
10:51 PM 26.1 °F 16.2 °F 21.0 °F 81% 30.28 in 10.0 mi NNE 10.4 mph - N/A   Overcast
11:09 PM 26.1 °F 15.0 °F 19.9 °F 78% 30.27 in 10.0 mi NNE 12.7 mph - N/A   Overcast
11:51 PM 26.1 °F 15.6 °F 19.9 °F 78% 30.27 in 10.0 mi NNE 11.5 mph - N/A   Overcast